[Iaude] MPEC A128: 2024 AD3 [a=1.48,e=0.38,i=19.8,H=20.7]
    mpec at marsden.cfa.harvard.edu 
    mpec at marsden.cfa.harvard.edu
       
    Thu Jan 11 16:01:06 EST 2024
    
    
  
M.P.E.C. 2024-A128                             Issued 2024 January 11, 20:59 UT
     The Minor Planet Electronic Circulars contain information on unusual
         minor planets, routine data on comets and natural satellites,
         and occasional editorial announcements.  They are published
    on behalf of Division F of the International Astronomical Union by the
          Minor Planet Center, Smithsonian Astrophysical Observatory,
                          Cambridge, MA 02138, U.S.A.
			  
             Prepared using the Tamkin Foundation Computer Network
                              MPC at CFA.HARVARD.EDU
            URL https://www.minorplanetcenter.net/    ISSN 1523-6714
                                    2024 AD3                                    
Observations:
     K24A03D  C2023 12 18.64994211 24 52.062-06 56 43.77         21.12GVEA128F51
     K24A03D* C2024 01 07.63912811 52 20.160+06 27 58.25         21.03wXEA128F51
     K24A03D  C2024 01 07.64592611 52 20.455+06 28 16.80         21.05wXEA128F51
     K24A03D  C2024 01 07.65272011 52 20.745+06 28 35.24         20.94wXEA128F51
     K24A03D  C2024 01 07.65956611 52 21.056+06 28 53.93         20.79wXEA128F51
     K24A03D KB2024 01 09.12372911 53 32.75 +07 35 48.7          21.4 GXEA128I93
     K24A03D KB2024 01 09.13593711 53 33.28 +07 36 22.8          21.1 GXEA128I93
     K24A03D 1C2024 01 11.44582911 55 08.771+09 24 21.02         20.73GVEA128G96
     K24A03D 1C2024 01 11.45098411 55 08.908+09 24 35.35         20.88GVEA128G96
     K24A03D 1C2024 01 11.45613911 55 09.062+09 24 50.29         21.03GVEA128G96
     K24A03D 1C2024 01 11.46130211 55 09.224+09 25 05.05         20.58GVEA128G96
Observer details:
F51 Pan-STARRS 1, Haleakala.  Observers J. Herman, T. Lowe, P. Minguez, A.
    Schultz, I. Smith.  Measurers K. Chambers, T. de Boer, J. Fairlamb, H.
    Gao, M. Huber, C.-C. Lin, E. Magnier, Y. Ramanjooloo, R. Wainscoat, R.
    Weryk.  1.8-m Ritchey-Chretien + CCD.
G96 Mt. Lemmon Survey.  Observer J. K. Hogan.  Measurers T. Beuden, V. F.
    Carvajal, D. Fay, J. B. Fazekas, D. C. Fuls, A. R. Gibbs, A. D. Grauer, H.
    Groeller, J. K. Hogan, R. A. Kowalski, S. M. Larson, G. J. Leonard, D.
    Rankin, R. L. Seaman, F. C. Shelly, K. W. Wierzchos.  1.5-m reflector +
    10K CCD.
I93 St Pardon de Conques.  Observer F. Losse.  0.40-m f/3.7 reflector + CMO.
Orbital elements:
2024 AD3                                                 Earth MOID = 0.1222 AU
Epoch 2023 Sept. 13.0 TT = JDT 2460200.5                Veres                   
M 337.26342              (2000.0)            P               Q                  
n   0.54747970     Peri.  283.47826     +0.67022000     -0.68237027             
a   1.4798716      Node   120.48842     +0.74120849     +0.63536409             
e   0.3830081      Incl.   19.79633     -0.03761827     +0.36150144             
P   1.80           H   20.75          G   0.15           U   8                  
Residuals in seconds of arc
231218 F51  0.0   0.0     240107 F51  0.2+  0.0     240111 G96  0.1-  0.3-
240107 F51  0.0   0.0     240109 I93  0.9-  0.1-    240111 G96  0.1-  0.0
240107 F51  0.0   0.0     240109 I93  0.3-  0.1+    240111 G96  0.1+  0.1+
240107 F51  0.0   0.0     240111 G96  0.1+  0.0
Ephemeris:
2024 AD3                 a,e,i = 1.48, 0.38, 20                  q = 0.9131
Date    TT    R. A. (2000) Decl.     Delta      r    Elong.  Phase     V
2023 12 12    11 12 05.7 -10 44 25   0.4402  1.0515    86.2    69.1    21.5
...
2023 12 27    11 38 36.3 -01 44 47   0.4285  1.1313    98.8    59.2    21.3
...
2024 01 04    11 48 49.7 +03 46 14   0.4218  1.1767   106.8    53.1    21.2
...
2024 01 10    11 54 11.0 +08 16 37   0.4181  1.2115   113.3    48.2    21.1
2024 01 11    11 54 51.5 +09 03 26   0.4177  1.2173   114.5    47.3    21.1
2024 01 12    11 55 28.1 +09 50 42   0.4174  1.2232   115.6    46.5    21.1
...
2024 01 18    11 57 41.4 +14 42 20   0.4173  1.2583   122.5    41.2    21.0
...
2024 01 26    11 56 35.1 +21 21 25   0.4236  1.3051   131.7    34.3    20.9
...
2024 02 10    11 41 35.1 +32 50 49   0.4622  1.3918   145.3    23.8    20.9
M. P. C. Staff               (C) Copyright 2024 MPC           M.P.E.C. 2024-A128
    
    
More information about the Iaude
mailing list